Meteo pe oră la Almargen

Astăzi, 21 Ianuarie, Joi

Timp Temperatura Precipitaţii Vânt Presiune Umiditate
00:00 +6°C° 0 mm 4 m/s 708 mmHg 92%
01:00 +7°C° 0.1 mm 3 m/s 708 mmHg 93%
02:00 +7°C° 0.1 mm 3 m/s 708 mmHg 93%
03:00 +7°C° 0.1 mm 3 m/s 708 mmHg 94%
04:00 +7°C° 0.1 mm 3 m/s 708 mmHg 94%
05:00 +7°C° 0.1 mm 2 m/s 708 mmHg 93%
06:00 +7°C° 0 mm 2 m/s 708 mmHg 95%
07:00 +8°C° 0.1 mm 2 m/s 709 mmHg 94%
08:00 +8°C° 0.1 mm 2 m/s 709 mmHg 92%
09:00 +9°C° 0.1 mm 2 m/s 710 mmHg 91%
10:00 +10°C° 0.1 mm 4 m/s 710 mmHg 87%
11:00 +10°C° 0.1 mm 5 m/s 710 mmHg 83%
12:00 +11°C° 0.1 mm 6 m/s 711 mmHg 79%
13:00 +11°C° 0.1 mm 6 m/s 710 mmHg 78%
14:00 +13°C° 0.1 mm 6 m/s 710 mmHg 77%
15:00 +13°C° 0.1 mm 6 m/s 709 mmHg 76%
16:00 +12°C° 0.1 mm 5 m/s 709 mmHg 81%
17:00 +11°C° 0.1 mm 4 m/s 709 mmHg 86%
18:00 +9°C° 0.1 mm 3 m/s 709 mmHg 91%
19:00 +9°C° 0 mm 3 m/s 709 mmHg 92%
20:00 +9°C° 0 mm 3 m/s 709 mmHg 92%
21:00 +9°C° 0 mm 3 m/s 709 mmHg 92%
22:00 +9°C° 0 mm 3 m/s 709 mmHg 92%
23:00 +9°C° 0 mm 3 m/s 708 mmHg 92%

Mâine, 22 Ianuarie, Vineri

Timp Temperatura Precipitaţii Vânt Presiune Umiditate
00:00 +9°C° 0 mm 3 m/s 708 mmHg 91%
01:00 +10°C° 0.1 mm 4 m/s 708 mmHg 92%
02:00 +10°C° 0.1 mm 4 m/s 707 mmHg 93%
03:00 +9°C° 0.1 mm 5 m/s 707 mmHg 94%
04:00 +10°C° 0.4 mm 6 m/s 707 mmHg 94%
05:00 +10°C° 0.4 mm 7 m/s 707 mmHg 93%
06:00 +10°C° 0.4 mm 7 m/s 707 mmHg 93%
07:00 +10°C° 0.1 mm 8 m/s 707 mmHg 92%
08:00 +10°C° 0.1 mm 8 m/s 708 mmHg 91%
09:00 +10°C° 0.1 mm 8 m/s 708 mmHg 90%
10:00 +10°C° 0.1 mm 8 m/s 708 mmHg 85%
11:00 +10°C° 0.1 mm 8 m/s 708 mmHg 81%
12:00 +10°C° 0.1 mm 9 m/s 708 mmHg 77%
13:00 +8°C° 0.1 mm 9 m/s 708 mmHg 77%
14:00 +8°C° 0.1 mm 9 m/s 708 mmHg 77%
15:00 +8°C° 0.1 mm 9 m/s 708 mmHg 77%
16:00 +7°C° 0.1 mm 8 m/s 708 mmHg 79%
17:00 +6°C° 0.1 mm 7 m/s 708 mmHg 81%
18:00 +7°C° 0.1 mm 6 m/s 708 mmHg 83%
19:00 +6°C° 0 mm 5 m/s 709 mmHg 85%
20:00 +6°C° 0 mm 4 m/s 709 mmHg 87%
21:00 +6°C° 0 mm 4 m/s 710 mmHg 90%
22:00 +5°C° 0 mm 4 m/s 710 mmHg 91%
23:00 +5°C° 0 mm 4 m/s 710 mmHg 92%

Poimâine, 23 Ianuarie, Sâmbătă

Timp Temperatura Precipitaţii Vânt Presiune Umiditate
00:00 +5°C° 0 mm 4 m/s 710 mmHg 94%
01:00 +4°C° 0 mm 4 m/s 710 mmHg 94%
02:00 +4°C° 0 mm 3 m/s 710 mmHg 94%
03:00 +4°C° 0 mm 3 m/s 710 mmHg 94%
04:00 +4°C° 0 mm 3 m/s 710 mmHg 94%
05:00 +4°C° 0 mm 3 m/s 710 mmHg 94%
06:00 +5°C° 0 mm 2 m/s 709 mmHg 94%
07:00 +6°C° 0 mm 2 m/s 710 mmHg 91%
08:00 +5°C° 0 mm 3 m/s 710 mmHg 89%
09:00 +7°C° 0 mm 3 m/s 710 mmHg 87%
10:00 +7°C° 0 mm 4 m/s 710 mmHg 83%
11:00 +8°C° 0 mm 5 m/s 710 mmHg 78%
12:00 +9°C° 0 mm 6 m/s 710 mmHg 74%
13:00 +9°C° 0.1 mm 5 m/s 710 mmHg 76%
14:00 +9°C° 0.1 mm 5 m/s 709 mmHg 78%
15:00 +9°C° 0.1 mm 5 m/s 708 mmHg 80%
16:00 +9°C° 0 mm 5 m/s 708 mmHg 83%
17:00 +8°C° 0 mm 5 m/s 708 mmHg 86%
18:00 +8°C° 0 mm 4 m/s 708 mmHg 88%
19:00 +8°C° 0 mm 4 m/s 708 mmHg 89%
20:00 +8°C° 0 mm 5 m/s 708 mmHg 89%
21:00 +8°C° 0 mm 5 m/s 708 mmHg 90%
22:00 +8°C° 0.1 mm 5 m/s 707 mmHg 91%
23:00 +8°C° 0.1 mm 5 m/s 707 mmHg 92%

24 Ianuarie, Duminică

Timp Temperatura Precipitaţii Vânt Presiune Umiditate
00:00 +9°C° 0.1 mm 6 m/s 707 mmHg 94%
01:00 +9°C° 0.1 mm 6 m/s 707 mmHg 94%
02:00 +9°C° 0.1 mm 7 m/s 706 mmHg 95%
03:00 +10°C° 0.1 mm 7 m/s 706 mmHg 96%
04:00 +10°C° 0.3 mm 6 m/s 706 mmHg 96%
05:00 +10°C° 0.3 mm 6 m/s 706 mmHg 96%
06:00 +10°C° 0.3 mm 5 m/s 707 mmHg 96%
07:00 +10°C° 0.3 mm 5 m/s 707 mmHg 95%
08:00 +11°C° 0.3 mm 4 m/s 707 mmHg 94%
09:00 +11°C° 0.3 mm 4 m/s 708 mmHg 93%
10:00 +11°C° 0 mm 3 m/s 708 mmHg 86%
11:00 +12°C° 0 mm 3 m/s 708 mmHg 79%
12:00 +12°C° 0 mm 3 m/s 708 mmHg 72%
13:00 +12°C° 0 mm 3 m/s 708 mmHg 72%
14:00 +13°C° 0 mm 4 m/s 708 mmHg 71%
15:00 +13°C° 0 mm 5 m/s 707 mmHg 71%
16:00 +12°C° 0 mm 4 m/s 707 mmHg 76%
17:00 +11°C° 0 mm 3 m/s 707 mmHg 82%
18:00 +10°C° 0 mm 2 m/s 707 mmHg 87%
19:00 +9°C° 0.1 mm 2 m/s 707 mmHg 88%
20:00 +10°C° 0.1 mm 1 m/s 708 mmHg 90%
21:00 +10°C° 0.1 mm 1 m/s 708 mmHg 91%
22:00 +10°C° 0.1 mm 1 m/s 708 mmHg 92%
23:00 +10°C° 0.1 mm 1 m/s 708 mmHg 93%

25 Ianuarie, Luni

Timp Temperatura Precipitaţii Vânt Presiune Umiditate
00:00 +9°C° 0.1 mm 1 m/s 708 mmHg 93%
01:00 +9°C° 0.1 mm 1 m/s 708 mmHg 94%
02:00 +9°C° 0.1 mm 1 m/s 708 mmHg 94%
03:00 +9°C° 0.1 mm 1 m/s 708 mmHg 95%
04:00 +9°C° 0 mm 1 m/s 708 mmHg 95%
05:00 +9°C° 0 mm 1 m/s 708 mmHg 94%
06:00 +9°C° 0 mm 1 m/s 708 mmHg 94%
07:00 +9°C° 0 mm 1 m/s 708 mmHg 92%
08:00 +10°C° 0 mm 1 m/s 709 mmHg 90%
09:00 +10°C° 0 mm 1 m/s 710 mmHg 88%
10:00 +11°C° 0 mm 1 m/s 710 mmHg 85%
11:00 +12°C° 0 mm 1 m/s 710 mmHg 81%
12:00 +13°C° 0 mm 2 m/s 711 mmHg 78%
13:00 +13°C° 0 mm 2 m/s 710 mmHg 78%
14:00 +14°C° 0 mm 2 m/s 710 mmHg 78%
15:00 +14°C° 0 mm 2 m/s 710 mmHg 78%
16:00 +13°C° 0 mm 1 m/s 710 mmHg 82%
17:00 +13°C° 0 mm 1 m/s 710 mmHg 86%
18:00 +12°C° 0 mm 1 m/s 710 mmHg 91%
19:00 +12°C° 0 mm 1 m/s 711 mmHg 91%
20:00 +12°C° 0 mm 1 m/s 711 mmHg 91%
21:00 +12°C° 0 mm 1 m/s 711 mmHg 91%
22:00 +11°C° 0 mm 1 m/s 712 mmHg 91%
23:00 +11°C° 0 mm 1 m/s 712 mmHg 91%

26 Ianuarie, Marţi

Timp Temperatura Precipitaţii Vânt Presiune Umiditate
00:00 +11°C° 0 mm 1 m/s 712 mmHg 91%
01:00 +10°C° 0 mm 1 m/s 712 mmHg 92%
02:00 +10°C° 0 mm 1 m/s 712 mmHg 92%
03:00 +10°C° 0 mm 1 m/s 712 mmHg 92%
04:00 +10°C° 0 mm 1 m/s 712 mmHg 93%
05:00 +10°C° 0 mm 1 m/s 712 mmHg 93%
06:00 +10°C° 0 mm 1 m/s 712 mmHg 93%
07:00 +11°C° 0 mm 1 m/s 712 mmHg 93%
08:00 +11°C° 0 mm 1 m/s 713 mmHg 93%
09:00 +12°C° 0 mm 1 m/s 714 mmHg 93%
10:00 +13°C° 0 mm 1 m/s 714 mmHg 89%
11:00 +14°C° 0 mm 1 m/s 714 mmHg 85%
12:00 +14°C° 0 mm 2 m/s 714 mmHg 81%
13:00 +15°C° 0 mm 2 m/s 714 mmHg 80%
14:00 +15°C° 0 mm 2 m/s 714 mmHg 78%
15:00 +14°C° 0 mm 3 m/s 714 mmHg 76%
16:00 +14°C° 0 mm 2 m/s 714 mmHg 81%
17:00 +13°C° 0 mm 2 m/s 714 mmHg 85%
18:00 +12°C° 0 mm 2 m/s 714 mmHg 89%
19:00 +12°C° 0 mm 1 m/s 714 mmHg 90%
20:00 +11°C° 0 mm 1 m/s 714 mmHg 91%
21:00 +11°C° 0 mm 1 m/s 714 mmHg 92%
22:00 +11°C° 0 mm 1 m/s 714 mmHg 91%
23:00 +11°C° 0 mm 1 m/s 714 mmHg 90%
Arată mai mult

Formular de consimțământ

Meteoprog și furnizorii noștri de servicii pot stoca și accesa date personale, precum cookies, identificatori de dispozitiv sau alte tehnologii similare pe dispozitivul dumneavoastră și procesa astfel de date pentru a personaliza conținutul și reclamele, dar și pentru a oferi caracteristici de social media și pentru a analiza traficul.

  • Stocarea și/sau accesarea informațiilor pe dispozitivul dumneavoastră

    Cookies, identificatori de dispozitiv sau alte informații pot fi stocate sau accesate pe dispozitiv în scopurile indicate mai sus.

  • Reclame și conținut personalizat, evaluarea reclamelor și a conținutului, informații despre audiențe și dezvoltarea produselor

    Reclamele și conținutul pot fi personalizate pe baza unui profil. Pot fi adăugate date suplimentare pentru a personaliza mai bine reclamele și conținutul. Performanța reclamelor și conținutului poate fi măsurată. Pot fi obținute informații despre utilizatorii care au văzut reclamele și conținutul. Aceste date pot fi utilizate pentru a dezvolta sau îmbunătăți experiența utilizatorilor, sistemele și software-ul.

Dând clic pe ‘Sunt de acord’, permiteți utilizarea cookie-urilor menționate, a identificatorilor de dispozitiv, balizelor web sau altor tehnologii similare. Setările pot fi modificate din browser-ul dispozitivului dumneavoastră.

În anumite scopuri, interesele legitime pot prima asupra consimțământului. Puteți citi mai multe informații în acest sens în Politica privind Confidențialitatea Datelor și Cookie.